Date String (YYYY-MM-DD hh:mm:ss) UTC,Instrument flags,absolute air pressure of the measurement (hPa),sample flow rate (lpm),inlet stack bypass flow (lpm),air temperature of the measurement (°C),ambient temperature measured by the external sensor (°C),aerosol sample conditioner tube jacket temperature (°C),OPC LED temperature (°C),internal box temperature (°C),relative humidity of the measurement (%),span deviation,mass concentration of particles derived from Lorenz-Mie calculation of OPC scattering (μg/m³),mass concentration of particles derived from Lorenz-Mie calculation of OPC scattering (μg/m³),mass concentration of particles derived from Lorenz-Mie calculation of OPC scattering (μg/m³)
DateTimeUTC,F1_M11,P_M11,Q1_M11,Q2_M11,T1_M11,T2_M11,T3_M11,T4_M11,T5_M11,U1_M11,ZSPAN_M11,X0_M11,X2_M11,X1_M11
2024-01-03 23:00:00,SystemResetWarning,0827.0,5.01,000.00,024.8,023.9,000.0,033.1,026.0,10.0,0005.7,0014.46,0007.75,0007.17
2024-01-03 23:01:00,SystemResetWarning,0827.0,4.99,000.00,024.7,023.9,000.0,033.1,025.9,10.0,0005.5,0013.68,0007.56,0006.98
2024-01-03 23:02:00,SystemResetWarning,0827.0,4.99,000.00,024.7,023.9,000.0,033.1,025.9,10.1,0005.2,0013.31,0007.38,0006.80
2024-01-03 23:03:00,SystemResetWarning,0827.0,5.00,000.00,024.7,023.9,000.0,033.1,026.0,10.1,0005.1,0012.53,0007.22,0006.62
2024-01-03 23:04:00,SystemResetWarning,0827.1,5.01,000.00,024.7,023.9,000.0,033.1,025.9,10.1,0004.8,0012.13,0007.08,0006.44
2024-01-03 23:05:00,SystemResetWarning,0827.1,5.01,000.00,024.7,023.9,000.0,033.1,025.9,9.4,0004.3,0012.26,0006.96,0006.27
2024-01-03 23:06:00,SystemResetWarning,0827.0,5.00,000.00,024.7,023.9,000.0,033.0,026.0,9.2,0004.5,0012.04,0006.76,0006.09
2024-01-03 23:07:00,SystemResetWarning,0827.1,4.99,000.00,024.7,023.9,000.0,033.0,026.0,9.6,0004.7,0011.71,0006.56,0005.89
2024-01-03 23:08:00,SystemResetWarning,0827.0,4.99,000.00,024.7,023.9,000.0,033.0,026.0,9.2,0004.4,0011.33,0006.38,0005.70
2024-01-03 23:09:00,SystemResetWarning,0827.0,4.99,000.00,024.7,023.9,000.0,033.0,026.0,9.4,0004.3,0010.76,0006.24,0005.54
2024-01-03 23:10:00,SystemResetWarning,0827.1,5.00,000.00,024.7,024.0,000.0,033.0,026.1,9.1,0004.4,0010.75,0006.09,0005.40
2024-01-03 23:11:00,SystemResetWarning,0827.1,5.00,000.00,024.8,024.0,000.0,033.0,026.1,9.4,0004.0,0010.94,0006.07,0005.36
2024-01-03 23:12:00,SystemResetWarning,0827.1,5.00,000.00,024.8,024.0,000.0,033.0,026.1,9.2,0003.4,0011.34,0006.08,0005.36
2024-01-03 23:13:00,SystemResetWarning,0827.1,5.00,000.00,024.8,024.0,000.0,033.0,026.1,9.2,0003.3,0011.97,0006.11,0005.37
2024-01-03 23:14:00,SystemResetWarning,0827.1,5.01,000.00,024.8,024.1,000.0,033.0,026.1,9.2,0003.5,0011.99,0006.12,0005.38
2024-01-03 23:15:00,SystemResetWarning,0827.1,5.00,000.00,024.8,024.1,000.0,033.1,026.1,9.2,0003.9,0012.29,0006.08,0005.37
2024-01-03 23:16:00,SystemResetWarning,0827.1,5.00,000.00,024.8,024.1,000.0,033.1,026.1,9.3,0003.9,0012.53,0006.05,0005.37
2024-01-03 23:17:00,SystemResetWarning,0827.2,5.00,000.00,024.8,024.1,000.0,033.1,026.2,9.2,0002.9,0012.82,0006.04,0005.36
2024-01-03 23:18:00,SystemResetWarning,0827.1,4.99,000.00,024.8,024.2,000.0,033.1,026.2,9.1,0002.3,0013.63,0006.22,0005.51
2024-01-03 23:19:00,SystemResetWarning,0827.1,5.00,000.00,024.9,024.2,000.0,033.1,026.2,9.0,0002.7,0013.76,0006.39,0005.69
2024-01-03 23:20:00,SystemResetWarning,0827.1,5.00,000.00,024.9,024.2,000.0,033.1,026.2,9.0,0002.9,0013.42,0006.43,0005.80
2024-01-03 23:21:00,SystemResetWarning,0827.1,5.00,000.00,024.9,024.2,000.0,033.1,026.3,8.9,0003.1,0013.91,0006.64,0005.98
2024-01-03 23:22:00,SystemResetWarning,0827.1,4.99,000.00,024.9,024.2,000.0,033.1,026.2,8.9,0003.0,0014.40,0006.82,0006.14
2024-01-03 23:23:00,SystemResetWarning,0827.1,5.00,000.00,024.9,024.2,000.0,033.1,026.2,8.9,0003.3,0014.40,0007.04,0006.35
2024-01-03 23:24:00,SystemResetWarning,0827.1,5.01,000.00,024.9,024.2,000.0,033.1,026.3,8.9,0003.9,0013.99,0007.21,0006.52
2024-01-03 23:25:00,SystemResetWarning,0827.1,5.00,000.00,024.9,024.2,000.0,033.1,026.3,8.9,0003.6,0014.51,0007.49,0006.76
2024-01-03 23:26:00,SystemResetWarning,0827.2,4.99,000.00,024.9,024.2,000.0,033.1,026.3,8.9,0003.6,0014.29,0007.84,0007.09
2024-01-03 23:27:00,SystemResetWarning,0827.2,4.99,000.00,024.9,024.3,000.0,033.1,026.3,8.9,0003.8,0014.28,0008.19,0007.44
2024-01-03 23:28:00,SystemResetWarning,0827.2,4.99,000.00,024.9,024.3,000.0,033.1,026.3,8.9,0004.5,0014.42,0008.49,0007.75
2024-01-03 23:29:00,SystemResetWarning,0827.1,5.01,000.00,025.0,024.3,000.0,033.2,026.3,8.9,0004.3,0013.96,0008.53,0007.82
2024-01-03 23:30:00,SystemResetWarning,0827.2,5.00,000.00,025.0,024.3,000.0,033.2,026.3,8.9,0004.0,0014.01,0008.64,0007.95
2024-01-03 23:31:00,SystemResetWarning,0827.2,5.01,000.00,025.0,024.3,000.0,033.2,026.3,8.8,0004.4,0014.44,0008.85,0008.12
2024-01-03 23:32:00,SystemResetWarning,0827.2,5.00,000.00,025.0,024.3,000.0,033.2,026.3,8.9,0004.4,0014.46,0008.94,0008.23
2024-01-03 23:33:00,SystemResetWarning,0827.2,5.00,000.00,025.0,024.3,000.0,033.2,026.3,8.8,0004.4,0014.80,0009.05,0008.36
2024-01-03 23:34:00,SystemResetWarning,0827.2,5.00,000.00,025.0,024.3,000.0,033.2,026.3,8.8,0005.0,0015.79,0009.13,0008.40
2024-01-03 23:35:00,SystemResetWarning,0827.2,4.99,000.00,025.0,024.3,000.0,033.2,026.3,8.8,0005.3,0016.78,0009.22,0008.48
2024-01-03 23:36:00,SystemResetWarning,0827.2,5.00,000.00,025.0,024.3,000.0,033.2,026.3,8.9,0005.5,0016.67,0009.21,0008.50
2024-01-03 23:37:00,SystemResetWarning,0827.2,5.00,000.00,025.0,024.3,000.0,033.2,026.3,9.0,0005.6,0016.71,0009.14,0008.45
2024-01-03 23:38:00,SystemResetWarning,0827.2,5.01,000.00,025.0,024.3,000.0,033.2,026.3,9.0,0005.8,0016.44,0009.03,0008.37
2024-01-03 23:39:00,SystemResetWarning,0827.1,5.01,000.00,025.0,024.3,000.0,033.2,026.4,9.2,0005.5,0016.25,0008.97,0008.31
2024-01-03 23:40:00,SystemResetWarning,0827.2,4.99,000.00,025.0,024.3,000.0,033.2,026.3,9.4,0006.0,0016.23,0009.04,0008.35
2024-01-03 23:41:00,SystemResetWarning,0827.2,4.99,000.00,025.0,024.3,000.0,033.2,026.3,9.4,0006.4,0016.59,0009.04,0008.33
2024-01-03 23:42:00,SystemResetWarning,0827.2,5.00,000.00,025.0,024.3,000.0,033.2,026.3,9.5,0006.3,0016.83,0008.99,0008.31
2024-01-03 23:43:00,SystemResetWarning,0827.2,5.02,000.00,025.0,024.3,000.0,033.3,026.3,9.8,0006.2,0017.02,0008.98,0008.28
2024-01-03 23:44:00,SystemResetWarning,0827.2,5.00,000.00,025.0,024.3,000.0,033.3,026.3,10.0,0006.2,0016.73,0008.96,0008.26
2024-01-03 23:45:00,SystemResetWarning,0827.2,5.00,000.00,025.0,024.2,000.0,033.3,026.3,9.8,0006.1,0016.64,0008.92,0008.25
2024-01-03 23:46:00,SystemResetWarning,0827.2,4.99,000.00,025.0,024.3,000.0,033.3,026.3,9.8,0005.8,0015.53,0008.90,0008.24
2024-01-03 23:47:00,SystemResetWarning,0827.2,5.00,000.00,025.0,024.3,000.0,033.3,026.3,9.8,0006.0,0016.02,0008.90,0008.24
2024-01-03 23:48:00,SystemResetWarning,0827.2,5.01,000.00,025.0,024.3,000.0,033.3,026.3,9.8,0006.0,0016.34,0008.90,0008.24
2024-01-03 23:49:00,SystemResetWarning,0827.2,5.01,000.00,025.0,024.3,000.0,033.3,026.3,9.9,0006.2,0016.91,0008.90,0008.22
2024-01-03 23:50:00,SystemResetWarning,0827.2,5.00,000.00,025.0,024.3,000.0,033.3,026.3,9.9,0006.5,0017.15,0008.89,0008.19
2024-01-03 23:51:00,SystemResetWarning,0827.2,5.00,000.00,025.0,024.3,000.0,033.3,026.4,9.9,0006.5,0017.08,0008.84,0008.15
2024-01-03 23:52:00,SystemResetWarning,0827.2,4.99,000.00,025.0,024.3,000.0,033.3,026.4,9.9,0006.5,0016.82,0008.77,0008.06
2024-01-03 23:53:00,SystemResetWarning,0827.2,5.00,000.00,025.0,024.3,000.0,033.3,026.4,9.8,0006.3,0016.29,0008.66,0007.92
2024-01-03 23:54:00,SystemResetWarning,0827.2,5.00,000.00,025.0,024.3,000.0,033.3,026.3,9.8,0006.2,0015.51,0008.47,0007.73
2024-01-03 23:55:00,SystemResetWarning,0827.1,5.00,000.00,025.0,024.3,000.0,033.3,026.3,10.0,0006.1,0015.21,0008.25,0007.54
2024-01-03 23:56:00,SystemResetWarning,0827.2,5.01,000.00,025.0,024.3,000.0,033.3,026.3,10.0,0006.0,0015.04,0007.94,0007.27
2024-01-03 23:57:00,SystemResetWarning,0827.2,5.00,000.00,025.0,024.3,000.0,033.3,026.3,10.0,0005.8,0014.74,0007.65,0006.96
2024-01-03 23:58:00,SystemResetWarning,0827.2,4.99,000.00,025.0,024.2,000.0,033.3,026.2,10.0,0005.4,0014.45,0007.34,0006.69
2024-01-03 23:59:00,SystemResetWarning,0827.2,4.99,000.00,025.0,024.2,000.0,033.3,026.2,10.0,0005.4,0013.95,0007.08,0006.44
